Terminal Aerodrome Forecast
Issued by NWS Jackson, MS

Home | Current Version | Previous Version | Text Only | Print | Product List | Glossary On
Versions: 1 2 3 4 5 6 7 8 9 10 11 12
000
FTUS44 KJAN 291700
TAFHBG
TAF
KHBG 291720Z 2918/3018 24010G17KT P6SM BKN030
     FM291900 23012G17KT P6SM SCT100 BKN250
     FM300100 33004KT P6SM OVC050
     FM300600 34009KT P6SM OVC025
     FM300900 01007KT P6SM OVC100
     FM301500 02007KT P6SM SKC=

USA.gov is the U.S. government's official web portal to all federal, state and local government web resources and services.